Retour au catalogue

FENGYUN 1C DEB

ActifSSO
NORAD 38143·DEBRIS·🇨🇳 China

Lancé May 10, 1999 depuis Taiyuan Satellite Launch Center

Loading…

Prochains Passages (prochaines 24 heures)

TLE

FraisSource: Space-Track

Époque: Sep 13, 2026, 09:15 UTC

1 38143U 99025EQQ 26256.38568397  .00000884  00000-0  56474-3 0  9993
2 38143  98.9971 315.5014 0055554 176.6372 183.5180 14.05369407641409

Suivez FENGYUN 1C DEB en temps réel avec AllMySat

Download on the App Store